| time (UTC) | temp C | wind direction | speed KPH | gust KPH | rain 1hr cm | rain 24hr cm | rain mn cm | humidity % | barometer mb |
| 20260507085411 | 13 | 282 | 0.0 | 0.0 | 0.00 | 0.00 | 0.00 | 83 | 1016.0 |
| 20260507084905 | 13 | 282 | 0.0 | 0.0 | 0.00 | 0.00 | 0.00 | 83 | 1016.0 |
| 20260507083717 | 13 | 282 | 0.0 | 0.0 | 0.00 | 0.00 | 0.00 | 82 | 1016.1 |
| 20260507083225 | 13 | 282 | 0.0 | 0.0 | 0.00 | 0.00 | 0.00 | 82 | 1016.1 |
| 20260507082709 | 13 | 282 | 0.0 | 0.0 | 0.00 | 0.00 | 0.00 | 81 | 1016.2 |
| 20260507081549 | 13 | 282 | 0.0 | 0.0 | 0.00 | 0.00 | 0.00 | 81 | 1016.2 |
| 20260507081047 | 13 | 282 | 0.0 | 0.0 | 0.00 | 0.00 | 0.00 | 80 | 1016.2 |
| 20260507080539 | 14 | 282 | 0.0 | 0.0 | 0.00 | 0.00 | 0.00 | 80 | 1016.3 |
| 20260507080034 | 14 | 282 | 0.0 | 0.0 | 0.00 | 0.00 | 0.00 | 80 | 1016.2 |
| 20260507074918 | 14 | 282 | 0.0 | 0.0 | 0.00 | 0.00 | 0.00 | 79 | 1016.2 |
| 20260507074419 | 14 | 282 | 0.0 | 0.0 | 0.00 | 0.00 | 0.00 | 79 | 1016.2 |
| 20260507073905 | 14 | 282 | 0.0 | 0.0 | 0.00 | 0.00 | 0.00 | 79 | 1016.2 |
| 20260507073412 | 14 | 282 | 0.0 | 0.0 | 0.00 | 0.00 | 0.00 | 78 | 1016.2 |
| 20260507072233 | 15 | 282 | 0.0 | 0.0 | 0.00 | 0.00 | 0.00 | 77 | 1016.3 |
| 20260507071719 | 15 | 282 | 0.0 | 0.0 | 0.00 | 0.00 | 0.00 | 77 | 1016.3 |
| 20260507071210 | 15 | 282 | 0.0 | 0.0 | 0.00 | 0.00 | 0.00 | 77 | 1016.3 |
| 20260507070048 | 15 | 282 | 0.0 | 0.0 | 0.00 | 0.00 | 0.00 | 76 | 1016.4 |
| 20260507064936 | 15 | 282 | 0.0 | 1.6 | 0.00 | 0.00 | 0.00 | 76 | 1016.5 |
| 20260507064433 | 15 | 282 | 0.0 | 0.0 | 0.00 | 0.00 | 0.00 | 76 | 1016.5 |
| 20260507062710 | 15 | 282 | 0.0 | 1.6 | 0.00 | 0.00 | 0.00 | 75 | 1016.5 |
| 20260507062208 | 15 | 282 | 0.0 | 0.0 | 0.00 | 0.00 | 0.00 | 75 | 1016.5 |
| 20260507061710 | 15 | 282 | 0.0 | 0.0 | 0.00 | 0.00 | 0.00 | 74 | 1016.5 |
| 20260507061159 | 15 | 282 | 0.0 | 0.0 | 0.00 | 0.00 | 0.00 | 74 | 1016.4 |
| 20260507060650 | 15 | 282 | 0.0 | 4.8 | 0.00 | 0.00 | 0.00 | 73 | 1016.5 |
| 20260507060145 | 16 | 275 | 0.0 | 4.8 | 0.00 | 0.00 | 0.00 | 73 | 1016.5 |
| 20260507055639 | 16 | 260 | 1.6 | 4.8 | 0.00 | 0.00 | 0.00 | 73 | 1016.5 |
| 20260507055127 | 16 | 262 | 1.6 | 4.8 | 0.00 | 0.00 | 0.00 | 72 | 1016.5 |
| 20260507054621 | 16 | 268 | 0.0 | 3.2 | 0.00 | 0.00 | 0.00 | 72 | 1016.5 |
| 20260507053452 | 16 | 274 | 0.0 | 3.2 | 0.00 | 0.00 | 0.00 | 71 | 1016.5 |
| 20260507052948 | 16 | 273 | 0.0 | 3.2 | 0.00 | 0.00 | 0.00 | 71 | 1016.5 |
| 20260507051834 | 16 | 297 | 1.6 | 6.4 | 0.00 | 0.00 | 0.00 | 71 | 1016.3 |
| 20260507051334 | 16 | 302 | 3.2 | 6.4 | 0.00 | 0.00 | 0.00 | 70 | 1016.3 |
| 20260507050822 | 16 | 288 | 3.2 | 6.4 | 0.00 | 0.00 | 0.00 | 70 | 1016.3 |
| 20260507050310 | 16 | 293 | 3.2 | 6.4 | 0.00 | 0.00 | 0.00 | 70 | 1016.3 |
| 20260507045156 | 16 | 298 | 1.6 | 4.8 | 0.00 | 0.00 | 0.00 | 69 | 1016.2 |
| 20260507044644 | 16 | 283 | 3.2 | 6.4 | 0.00 | 0.00 | 0.00 | 69 | 1016.2 |
| 20260507044139 | 17 | 269 | 3.2 | 6.4 | 0.00 | 0.00 | 0.00 | 68 | 1016.3 |
| 20260507043622 | 17 | 299 | 3.2 | 6.4 | 0.00 | 0.00 | 0.00 | 68 | 1016.2 |
| 20260507043126 | 17 | 276 | 3.2 | 6.4 | 0.00 | 0.00 | 0.00 | 68 | 1016.2 |
| 20260507042621 | 17 | 285 | 3.2 | 8.0 | 0.00 | 0.00 | 0.00 | 68 | 1016.2 |
| 20260507042118 | 17 | 304 | 3.2 | 8.0 | 0.00 | 0.00 | 0.00 | 68 | 1016.2 |
| 20260507041623 | 17 | 284 | 3.2 | 9.7 | 0.00 | 0.00 | 0.00 | 68 | 1016.2 |
| 20260507041132 | 17 | 304 | 3.2 | 9.7 | 0.00 | 0.00 | 0.00 | 67 | 1016.2 |
| 20260507040622 | 17 | 266 | 3.2 | 9.7 | 0.00 | 0.00 | 0.00 | 67 | 1016.1 |
| 20260507040114 | 17 | 290 | 4.8 | 9.7 | 0.00 | 0.00 | 0.00 | 67 | 1016.0 |
| 20260507035621 | 17 | 298 | 4.8 | 9.7 | 0.00 | 0.00 | 0.00 | 67 | 1016.0 |
| 20260507035108 | 17 | 266 | 3.2 | 11.3 | 0.00 | 0.00 | 0.00 | 66 | 1015.9 |
| 20260507034606 | 17 | 252 | 1.6 | 11.3 | 0.00 | 0.00 | 0.00 | 66 | 1015.8 |
| 20260507034104 | 17 | 259 | 3.2 | 11.3 | 0.00 | 0.00 | 0.00 | 66 | 1015.8 |
| 20260507033613 | 18 | 297 | 4.8 | 11.3 | 0.00 | 0.00 | 0.00 | 66 | 1015.7 |
| 20260507033113 | 18 | 227 | 4.8 | 9.7 | 0.00 | 0.00 | 0.00 | 65 | 1015.6 |
| 20260507032601 | 18 | 296 | 4.8 | 9.7 | 0.00 | 0.00 | 0.00 | 65 | 1015.6 |
| 20260507032058 | 18 | 283 | 4.8 | 12.9 | 0.00 | 0.00 | 0.00 | 65 | 1015.6 |
| 20260507031558 | 18 | 273 | 6.4 | 12.9 | 0.00 | 0.00 | 0.00 | 65 | 1015.6 |
| 20260507031039 | 18 | 275 | 6.4 | 12.9 | 0.00 | 0.00 | 0.00 | 64 | 1015.5 |
| 20260507030535 | 18 | 283 | 6.4 | 12.9 | 0.00 | 0.00 | 0.00 | 64 | 1015.5 |
| 20260507025415 | 19 | 288 | 6.4 | 12.9 | 0.00 | 0.00 | 0.00 | 63 | 1015.4 |
| 20260507024911 | 19 | 264 | 6.4 | 12.9 | 0.00 | 0.00 | 0.00 | 63 | 1015.3 |
| 20260507023735 | 20 | 260 | 6.4 | 14.5 | 0.00 | 0.00 | 0.00 | 62 | 1015.2 |
| 20260507023237 | 20 | 278 | 8.0 | 14.5 | 0.00 | 0.00 | 0.00 | 61 | 1015.0 |
| 20260507022746 | 20 | 260 | 6.4 | 12.9 | 0.00 | 0.00 | 0.00 | 60 | 1015.0 |
| 20260507022251 | 21 | 302 | 3.2 | 11.3 | 0.00 | 0.00 | 0.00 | 60 | 1014.9 |
| 20260507021146 | 21 | 248 | 6.4 | 11.3 | 0.00 | 0.00 | 0.00 | 59 | 1014.8 |
| 20260507020653 | 21 | 290 | 4.8 | 11.3 | 0.00 | 0.00 | 0.00 | 58 | 1014.8 |
| 20260507020143 | 21 | 266 | 6.4 | 11.3 | 0.00 | 0.00 | 0.00 | 58 | 1014.7 |
| 20260507015643 | 21 | 290 | 6.4 | 16.1 | 0.00 | 0.00 | 0.00 | 57 | 1014.7 |
| 20260507015135 | 21 | 294 | 8.0 | 16.1 | 0.00 | 0.00 | 0.00 | 57 | 1014.6 |
| 20260507014631 | 21 | 301 | 6.4 | 16.1 | 0.00 | 0.00 | 0.00 | 56 | 1014.7 |
| 20260507014125 | 22 | 285 | 6.4 | 16.1 | 0.00 | 0.00 | 0.00 | 56 | 1014.6 |
| 20260507013628 | 22 | 290 | 8.0 | 14.5 | 0.00 | 0.00 | 0.00 | 55 | 1014.6 |
| 20260507013124 | 22 | 250 | 8.0 | 16.1 | 0.00 | 0.00 | 0.00 | 55 | 1014.5 |
| 20260507012617 | 22 | 297 | 6.4 | 16.1 | 0.00 | 0.00 | 0.00 | 55 | 1014.5 |
| 20260507012116 | 22 | 278 | 6.4 | 17.7 | 0.00 | 0.00 | 0.00 | 54 | 1014.5 |
| 20260507010952 | 22 | 247 | 9.7 | 20.9 | 0.00 | 0.00 | 0.00 | 54 | 1014.3 |
| 20260507005838 | 22 | 191 | 9.7 | 20.9 | 0.00 | 0.00 | 0.00 | 53 | 1014.3 |
| 20260507005336 | 23 | 295 | 8.0 | 20.9 | 0.00 | 0.00 | 0.00 | 52 | 1014.3 |
| 20260507004156 | 22 | 244 | 11.3 | 20.9 | 0.00 | 0.00 | 0.00 | 52 | 1014.2 |
| 20260507003636 | 23 | 258 | 9.7 | 20.9 | 0.00 | 0.00 | 0.00 | 51 | 1014.3 |
| 20260507003119 | 23 | 227 | 9.7 | 20.9 | 0.00 | 0.00 | 0.00 | 50 | 1014.2 |
| 20260507002619 | 23 | 239 | 9.7 | 20.9 | 0.00 | 0.00 | 0.00 | 51 | 1014.2 |
| 20260507001504 | 23 | 273 | 9.7 | 20.9 | 0.00 | 0.00 | 0.00 | 50 | 1014.1 |
| 20260507000340 | 23 | 231 | 11.3 | 25.7 | 0.00 | 0.00 | 0.00 | 50 | 1014.0 |
| 20260506235845 | 23 | 281 | 11.3 | 25.7 | 0.00 | 0.00 | 0.00 | 49 | 1014.1 |
| 20260506235329 | 23 | 257 | 11.3 | 25.7 | 0.00 | 0.00 | 0.00 | 50 | 1014.2 |
| 20260506234819 | 23 | 282 | 11.3 | 25.7 | 0.00 | 0.00 | 0.00 | 49 | 1014.0 |
| 20260506234310 | 24 | 256 | 9.7 | 24.1 | 0.00 | 0.00 | 0.00 | 49 | 1014.0 |
| 20260506233818 | 24 | 238 | 9.7 | 22.5 | 0.00 | 0.00 | 0.00 | 48 | 1014.0 |
| 20260506233326 | 23 | 262 | 9.7 | 22.5 | 0.00 | 0.00 | 0.00 | 49 | 1014.1 |
| 20260506232155 | 24 | 256 | 8.0 | 19.3 | 0.00 | 0.00 | 0.00 | 47 | 1014.2 |
| 20260506230411 | 24 | 293 | 9.7 | 20.9 | 0.00 | 0.00 | 0.00 | 46 | 1014.3 |
| 20260506225919 | 24 | 236 | 9.7 | 20.9 | 0.00 | 0.00 | 0.00 | 46 | 1014.3 |
| 20260506225429 | 24 | 249 | 8.0 | 20.9 | 0.00 | 0.00 | 0.00 | 45 | 1014.3 |
| 20260506224914 | 24 | 269 | 6.4 | 19.3 | 0.00 | 0.00 | 0.00 | 46 | 1014.4 |
| 20260506223059 | 23 | 290 | 6.4 | 17.7 | 0.00 | 0.00 | 0.00 | 46 | 1014.6 |
| 20260506222546 | 23 | 300 | 8.0 | 17.7 | 0.00 | 0.00 | 0.00 | 46 | 1014.7 |
| 20260506222048 | 23 | 298 | 8.0 | 16.1 | 0.00 | 0.00 | 0.00 | 45 | 1014.7 |
| 20260506221535 | 23 | 339 | 8.0 | 20.9 | 0.00 | 0.00 | 0.00 | 46 | 1014.7 |
| 20260506221043 | 23 | 296 | 8.0 | 20.9 | 0.00 | 0.00 | 0.00 | 46 | 1014.9 |
| 20260506215306 | 23 | 238 | 6.4 | 17.7 | 0.00 | 0.00 | 0.00 | 45 | 1015.1 |
| 20260506214140 | 23 | 3 | 4.8 | 12.9 | 0.00 | 0.00 | 0.00 | 45 | 1015.3 |
| 20260506213637 | 23 | 248 | 6.4 | 16.1 | 0.00 | 0.00 | 0.00 | 46 | 1015.3 |
| 20260506213134 | 23 | 290 | 4.8 | 16.1 | 0.00 | 0.00 | 0.00 | 47 | 1015.4 |
| 20260506212634 | 23 | 264 | 6.4 | 16.1 | 0.00 | 0.00 | 0.00 | 48 | 1015.4 |
| 20260506212117 | 23 | 297 | 8.0 | 16.1 | 0.00 | 0.00 | 0.00 | 48 | 1015.5 |
| 20260506211602 | 22 | 330 | 4.8 | 16.1 | 0.00 | 0.00 | 0.00 | 48 | 1015.6 |
| 20260506211055 | 22 | 307 | 6.4 | 16.1 | 0.00 | 0.00 | 0.00 | 48 | 1015.6 |
| 20260506205306 | 22 | 292 | 8.0 | 19.3 | 0.00 | 0.00 | 0.00 | 48 | 1015.9 |
| 20260506204807 | 22 | 307 | 8.0 | 19.3 | 0.00 | 0.00 | 0.00 | 49 | 1015.9 |
| 20260506204255 | 22 | 281 | 6.4 | 19.3 | 0.00 | 0.00 | 0.00 | 48 | 1016.1 |
| 20260506203739 | 23 | 308 | 4.8 | 11.3 | 0.00 | 0.00 | 0.00 | 47 | 1016.1 |
| 20260506203245 | 23 | 277 | 4.8 | 11.3 | 0.00 | 0.00 | 0.00 | 47 | 1016.1 |
| 20260506202104 | 22 | 172 | 8.0 | 14.5 | 0.00 | 0.00 | 0.00 | 46 | 1016.3 |
| 20260506201601 | 22 | 195 | 6.4 | 14.5 | 0.00 | 0.00 | 0.00 | 46 | 1016.3 |
| 20260506201108 | 23 | 182 | 3.2 | 12.9 | 0.00 | 0.00 | 0.00 | 47 | 1016.4 |
| 20260506200604 | 23 | 293 | 3.2 | 12.9 | 0.00 | 0.00 | 0.00 | 45 | 1016.4 |
| 20260506195447 | 22 | 155 | 3.2 | 12.9 | 0.00 | 0.00 | 0.00 | 47 | 1016.6 |
| 20260506194951 | 22 | 304 | 4.8 | 12.9 | 0.00 | 0.00 | 0.00 | 49 | 1016.6 |
| 20260506194432 | 21 | 251 | 3.2 | 9.7 | 0.00 | 0.00 | 0.00 | 49 | 1016.6 |
| 20260506193918 | 21 | 306 | 3.2 | 9.7 | 0.00 | 0.00 | 0.00 | 49 | 1016.7 |
| 20260506193401 | 21 | 288 | 1.6 | 8.0 | 0.00 | 0.00 | 0.00 | 49 | 1016.8 |
| 20260506192851 | 21 | 160 | 3.2 | 11.3 | 0.00 | 0.00 | 0.00 | 50 | 1016.8 |
| 20260506192353 | 21 | 221 | 4.8 | 11.3 | 0.00 | 0.00 | 0.00 | 50 | 1016.9 |
| 20260506191841 | 21 | 214 | 4.8 | 11.3 | 0.00 | 0.00 | 0.00 | 51 | 1017.0 |
| 20260506191335 | 20 | 290 | 4.8 | 11.3 | 0.00 | 0.00 | 0.00 | 52 | 1017.1 |
| 20260506190816 | 20 | 202 | 4.8 | 9.7 | 0.00 | 0.00 | 0.00 | 51 | 1017.1 |
| 20260506190307 | 20 | 298 | 3.2 | 9.7 | 0.00 | 0.00 | 0.00 | 51 | 1017.3 |
| 20260506185814 | 21 | 262 | 1.6 | 11.3 | 0.00 | 0.00 | 0.00 | 50 | 1017.3 |
| 20260506185314 | 20 | 247 | 3.2 | 11.3 | 0.00 | 0.00 | 0.00 | 51 | 1017.4 |
| 20260506184802 | 19 | 129 | 4.8 | 11.3 | 0.00 | 0.00 | 0.00 | 54 | 1017.4 |
| 20260506184242 | 19 | 4 | 4.8 | 11.3 | 0.00 | 0.00 | 0.00 | 53 | 1017.5 |
| 20260506183723 | 20 | 37 | 3.2 | 9.7 | 0.00 | 0.00 | 0.00 | 50 | 1017.6 |
| 20260506182611 | 20 | 235 | 3.2 | 14.5 | 0.00 | 0.00 | 0.00 | 51 | 1017.7 |
| 20260506182053 | 20 | 252 | 3.2 | 14.5 | 0.00 | 0.00 | 0.00 | 52 | 1017.6 |
| 20260506181558 | 19 | 183 | 3.2 | 14.5 | 0.00 | 0.00 | 0.00 | 53 | 1017.6 |
| 20260506180413 | 18 | 289 | 1.6 | 9.7 | 0.00 | 0.00 | 0.00 | 55 | 1017.7 |
| 20260506175300 | 18 | 126 | 4.8 | 9.7 | 0.00 | 0.00 | 0.00 | 56 | 1017.8 |
| 20260506174803 | 18 | 131 | 3.2 | 9.7 | 0.00 | 0.00 | 0.00 | 55 | 1017.7 |
| 20260506173639 | 18 | 157 | 3.2 | 9.7 | 0.00 | 0.00 | 0.00 | 56 | 1017.7 |
| 20260506173121 | 18 | 147 | 3.2 | 9.7 | 0.00 | 0.00 | 0.00 | 56 | 1017.7 |
| 20260506171941 | 18 | 113 | 1.6 | 8.0 | 0.00 | 0.00 | 0.00 | 57 | 1017.8 |
| 20260506171431 | 17 | 330 | 1.6 | 8.0 | 0.00 | 0.00 | 0.00 | 58 | 1017.8 |
| 20260506170937 | 17 | 184 | 3.2 | 8.0 | 0.00 | 0.00 | 0.00 | 57 | 1017.8 |
| 20260506170429 | 17 | 219 | 1.6 | 8.0 | 0.00 | 0.00 | 0.00 | 59 | 1017.8 |
| 20260506165918 | 17 | 318 | 3.2 | 9.7 | 0.00 | 0.00 | 0.00 | 59 | 1017.8 |
| 20260506165411 | 17 | 146 | 3.2 | 9.7 | 0.00 | 0.00 | 0.00 | 60 | 1017.8 |
| 20260506164919 | 17 | 183 | 3.2 | 9.7 | 0.00 | 0.00 | 0.00 | 59 | 1017.8 |
| 20260506163211 | 17 | 214 | 0.0 | 8.0 | 0.00 | 0.00 | 0.00 | 63 | 1017.8 |
| 20260506162703 | 16 | 143 | 0.0 | 3.2 | 0.00 | 0.00 | 0.00 | 63 | 1017.9 |
| 20260506162204 | 16 | 82 | 1.6 | 8.0 | 0.00 | 0.00 | 0.00 | 62 | 1017.8 |
| 20260506161656 | 16 | 179 | 0.0 | 8.0 | 0.00 | 0.00 | 0.00 | 66 | 1017.8 |
| 20260506160508 | 16 | 217 | 1.6 | 8.0 | 0.00 | 0.00 | 0.00 | 66 | 1017.9 |
| 20260506160001 | 16 | 200 | 0.0 | 3.2 | 0.00 | 0.00 | 0.00 | 68 | 1017.9 |
| 20260506155451 | 16 | 158 | 1.6 | 6.4 | 0.00 | 0.00 | 0.00 | 68 | 1017.9 |
| 20260506154341 | 15 | 214 | 0.0 | 6.4 | 0.00 | 0.00 | 0.00 | 70 | 1017.8 |
| 20260506153845 | 15 | 136 | 0.0 | 4.8 | 0.00 | 0.00 | 0.00 | 72 | 1017.8 |
| 20260506153340 | 15 | 241 | 0.0 | 3.2 | 0.00 | 0.00 | 0.00 | 71 | 1017.9 |
| 20260506152840 | 15 | 240 | 0.0 | 0.0 | 0.00 | 0.00 | 0.00 | 71 | 1017.9 |
| 20260506152330 | 15 | 252 | 0.0 | 0.0 | 0.00 | 0.00 | 0.00 | 72 | 1017.9 |
| 20260506151830 | 15 | 188 | 0.0 | 1.6 | 0.00 | 0.00 | 0.00 | 73 | 1018.0 |
| 20260506151329 | 15 | 226 | 0.0 | 0.0 | 0.00 | 0.00 | 0.00 | 73 | 1017.9 |
| 20260506150822 | 15 | 165 | 0.0 | 3.2 | 0.00 | 0.00 | 0.00 | 74 | 1017.9 |
| 20260506150325 | 15 | 146 | 0.0 | 3.2 | 0.00 | 0.00 | 0.00 | 74 | 1017.9 |
| 20260506145819 | 14 | 153 | 0.0 | 0.0 | 0.00 | 0.00 | 0.00 | 75 | 1017.9 |
| 20260506145317 | 14 | 120 | 0.0 | 3.2 | 0.00 | 0.00 | 0.00 | 76 | 1017.9 |
| 20260506144154 | 13 | 71 | 0.0 | 0.0 | 0.00 | 0.00 | 0.00 | 77 | 1017.9 |
| 20260506143642 | 13 | 86 | 0.0 | 0.0 | 0.00 | 0.00 | 0.00 | 77 | 1017.8 |
| 20260506143141 | 13 | 233 | 0.0 | 0.0 | 0.00 | 0.00 | 0.00 | 80 | 1017.8 |
| 20260506142648 | 13 | 233 | 0.0 | 0.0 | 0.00 | 0.00 | 0.00 | 83 | 1017.7 |
| 20260506140905 | 12 | 233 | 0.0 | 0.0 | 0.00 | 0.00 | 0.00 | 84 | 1017.7 |
| 20260506140348 | 11 | 233 | 0.0 | 0.0 | 0.00 | 0.00 | 0.00 | 86 | 1017.7 |
| 20260506135854 | 11 | 233 | 0.0 | 0.0 | 0.00 | 0.00 | 0.00 | 86 | 1017.7 |
| 20260506135345 | 10 | 233 | 0.0 | 0.0 | 0.00 | 0.00 | 0.00 | 86 | 1017.7 |
| 20260506134216 | 10 | 234 | 0.0 | 0.0 | 0.00 | 0.00 | 0.00 | 88 | 1017.6 |
| 20260506133713 | 10 | 233 | 0.0 | 0.0 | 0.00 | 0.00 | 0.00 | 88 | 1017.6 |
| 20260506132551 | 9 | 233 | 0.0 | 0.0 | 0.00 | 0.00 | 0.00 | 89 | 1017.4 |
| 20260506132039 | 9 | 233 | 0.0 | 0.0 | 0.00 | 0.00 | 0.00 | 89 | 1017.3 |
| 20260506131527 | 8 | 233 | 0.0 | 0.0 | 0.00 | 0.00 | 0.00 | 89 | 1017.3 |
| 20260506131015 | 8 | 233 | 0.0 | 0.0 | 0.00 | 0.00 | 0.00 | 89 | 1017.3 |
| 20260506130512 | 8 | 233 | 0.0 | 0.0 | 0.00 | 0.00 | 0.00 | 90 | 1017.2 |
| 20260506125955 | 8 | 233 | 0.0 | 0.0 | 0.00 | 0.00 | 0.00 | 90 | 1017.1 |
| 20260506125504 | 8 | 234 | 0.0 | 0.0 | 0.00 | 0.00 | 0.00 | 90 | 1017.1 |
| 20260506124951 | 8 | 233 | 0.0 | 0.0 | 0.00 | 0.00 | 0.00 | 90 | 1017.2 |
| 20260506124444 | 8 | 234 | 0.0 | 0.0 | 0.00 | 0.00 | 0.00 | 90 | 1017.1 |
| 20260506123936 | 8 | 233 | 0.0 | 0.0 | 0.00 | 0.00 | 0.00 | 90 | 1017.0 |
| 20260506123436 | 9 | 233 | 0.0 | 0.0 | 0.00 | 0.00 | 0.00 | 90 | 1017.0 |
| 20260506122943 | 9 | 234 | 0.0 | 0.0 | 0.00 | 0.00 | 0.00 | 90 | 1016.9 |
| 20260506122425 | 9 | 234 | 0.0 | 0.0 | 0.00 | 0.00 | 0.00 | 90 | 1016.9 |
| 20260506121920 | 9 | 233 | 0.0 | 0.0 | 0.00 | 0.00 | 0.00 | 90 | 1017.0 |
| 20260506121414 | 9 | 233 | 0.0 | 0.0 | 0.00 | 0.00 | 0.00 | 90 | 1016.9 |
| 20260506120236 | 9 | 234 | 0.0 | 0.0 | 0.00 | 0.00 | 0.00 | 90 | 1016.8 |
| 20260506115737 | 9 | 234 | 0.0 | 0.0 | 0.00 | 0.00 | 0.00 | 90 | 1016.8 |
| 20260506115220 | 9 | 233 | 0.0 | 0.0 | 0.00 | 0.00 | 0.00 | 90 | 1016.7 |
| 20260506114728 | 9 | 233 | 0.0 | 0.0 | 0.00 | 0.00 | 0.00 | 90 | 1016.8 |
| 20260506114211 | 9 | 234 | 0.0 | 0.0 | 0.00 | 0.00 | 0.00 | 90 | 1016.8 |
| 20260506113655 | 9 | 233 | 0.0 | 0.0 | 0.00 | 0.00 | 0.00 | 89 | 1016.7 |
| 20260506113135 | 9 | 234 | 0.0 | 0.0 | 0.00 | 0.00 | 0.00 | 89 | 1016.8 |
| 20260506112621 | 9 | 233 | 0.0 | 0.0 | 0.00 | 0.00 | 0.00 | 89 | 1016.7 |
| 20260506112128 | 9 | 233 | 0.0 | 0.0 | 0.00 | 0.00 | 0.00 | 89 | 1016.7 |
| 20260506111617 | 9 | 233 | 0.0 | 0.0 | 0.00 | 0.00 | 0.00 | 89 | 1016.7 |
| 20260506110437 | 9 | 233 | 0.0 | 0.0 | 0.00 | 0.00 | 0.00 | 88 | 1016.7 |
| 20260506105923 | 9 | 233 | 0.0 | 0.0 | 0.00 | 0.00 | 0.00 | 87 | 1016.6 |
| 20260506105422 | 9 | 233 | 0.0 | 0.0 | 0.00 | 0.00 | 0.00 | 87 | 1016.7 |
| 20260506104913 | 9 | 233 | 0.0 | 0.0 | 0.00 | 0.00 | 0.00 | 88 | 1016.7 |
| 20260506104417 | 9 | 234 | 0.0 | 0.0 | 0.00 | 0.00 | 0.00 | 88 | 1016.6 |
| 20260506103302 | 10 | 234 | 0.0 | 0.0 | 0.00 | 0.00 | 0.00 | 87 | 1016.7 |
| 20260506102757 | 10 | 233 | 0.0 | 0.0 | 0.00 | 0.00 | 0.00 | 87 | 1016.7 |
| 20260506102238 | 10 | 233 | 0.0 | 0.0 | 0.00 | 0.00 | 0.00 | 87 | 1016.8 |
| 20260506101735 | 10 | 233 | 0.0 | 0.0 | 0.00 | 0.00 | 0.00 | 87 | 1016.7 |
| 20260506100605 | 10 | 234 | 0.0 | 0.0 | 0.00 | 0.00 | 0.00 | 87 | 1016.7 |
| 20260506100115 | 10 | 233 | 0.0 | 0.0 | 0.00 | 0.00 | 0.00 | 87 | 1016.7 |
| 20260506095611 | 10 | 233 | 0.0 | 0.0 | 0.00 | 0.00 | 0.00 | 87 | 1016.7 |
| 20260506095059 | 10 | 234 | 0.0 | 0.0 | 0.00 | 0.00 | 0.00 | 87 | 1016.7 |
| 20260506094553 | 10 | 233 | 0.0 | 0.0 | 0.00 | 0.00 | 0.00 | 86 | 1016.6 |
| 20260506094100 | 10 | 233 | 0.0 | 0.0 | 0.00 | 0.00 | 0.00 | 86 | 1016.6 |
| 20260506093606 | 10 | 233 | 0.0 | 0.0 | 0.00 | 0.00 | 0.00 | 86 | 1016.6 |
| 20260506093052 | 10 | 233 | 0.0 | 0.0 | 0.00 | 0.00 | 0.00 | 86 | 1016.6 |
| 20260506092559 | 10 | 233 | 0.0 | 0.0 | 0.00 | 0.00 | 0.00 | 86 | 1016.6 |
| 20260506092040 | 10 | 233 | 0.0 | 0.0 | 0.00 | 0.00 | 0.00 | 86 | 1016.8 |
| 20260506091531 | 10 | 233 | 0.0 | 0.0 | 0.00 | 0.00 | 0.00 | 86 | 1016.8 |
| 20260506091027 | 10 | 233 | 0.0 | 0.0 | 0.00 | 0.00 | 0.00 | 86 | 1016.8 |
| 20260506090531 | 10 | 234 | 0.0 | 0.0 | 0.00 | 0.00 | 0.00 | 86 | 1016.8 |
| 20260506090023 | 10 | 234 | 0.0 | 0.0 | 0.00 | 0.00 | 0.00 | 86 | 1016.8 |